Location: Burbank
(38.7788°N, 114.0429°W)
Time: 22:16:45
(UTC+00:00)

Transit 2A - Pass Details

Date: 10 May 2026
Orbit: 595 x 949 km, 66.7° (Epoch: 5 June)

Event Time Altitude Azimuth Distance (km) Brightness Sun altitude
Rises 01:35:16 0° 241° (WSW) 3,597 10.2 10.4°
Reaches altitude 10° 01:38:15 10° 252° (WSW) 2,635 9.9 9.8°
Maximum altitude 01:43:24 27° 309° (NW) 1,654 9.0 8.9°
Drops below altitude 10° 01:48:20 10° 7° (N) 2,500 8.8 8.0°
Sets 01:51:07 0° 19° (NNE) 3,382 9.3 7.4°
